Orbital Elements at Epoch 2459200.5 (2020-Dec-17.0) TDB
Reference: JPL 18 (heliocentric ecliptic J2000)
Element | Value | Uncertainty (1-sigma) | Units |
e | .1942864816730671 | 4.2399e-08 | |
a | 3.122248495010024 | 1.9991e-08 | au |
q | 2.515637820005497 | 1.3552e-07 | au |
i | 7.951626995392213 | 5.144e-06 | deg |
node | 194.5321301607866 | 3.1692e-05 | deg |
peri | 29.98006960609726 | 3.4698e-05 | deg |
M | 18.15381399619093 | 1.1386e-05 | deg |
tp | 2459098.883319241036 (2020-Sep-06.38331924) | 6.3784e-05 | TDB |
period | 2015.114018514385 5.52 | 1.9354e-05 5.299e-08 | d yr |
n | .1786499407440007 | 1.7158e-09 | deg/d |
Q | 3.72885917001455 | 2.3875e-08 | au |
|
| | Orbit Determination Parameters
Additional Information
|